TIGER-6

operational
NORAD ID: 58272 Int'l Des: 2023-174 Owner: OQT Country: L
LEOCIRCULARRETROGRADE

TIGER-6について

説明を読み込み中...

リアルタイム位置

3D地球を読み込み中...

次回通過

高度履歴

Altitude vs Time

uPlot chart will show altitude changes over time

軌道要素

1 58272U 23174S 26062.16053211 .00111758 00000-0 10319-2 0 9995
2 58272 97.3926 155.0025 0003821 172.6428 187.4890 15.67220579129614
Epoch: Mar 3, 2026 • Age: 19 hours

現在のステータス

高度 386.6 km
速度 7.68 km/s
衛星直下点 -46.65°S, 77.32°E
打ち上げ日 Nov 11, 2023
運用期間 2.3 years
タイプ other

技術仕様

分類 Payload
質量 10.00 kg
乾燥質量 10.00 kg
総質量 10.00 kg
長さ 0.30 m
直径 0.20 m
スパン 0.30 m
形状 Box+2 pan
製造者 SPINV
バスタイプ Cubesat 6U
フェーズステータス In Orbit
所有者/国 OQT/L

大規模コンステレーション

Loading constellations...